Time,TemperatureF,DewpointF,PressureIn,WindDirection,WindDirectionDegrees,WindSpeedMPH,WindSpeedGustMPH,Humidity,HourlyPrecipIn,Conditions,Clouds,dailyrainin,SoftwareType,DateUTC
2013-08-14 00:12:00,62.0,-99.9,-100.00,NW,322,0.0,2.0,-999,0.00,,,0.00,,2013-08-14 05:12:00,
2013-08-14 00:22:00,62.0,-99.9,-100.00,NW,322,0.0,2.0,-999,0.00,,,0.00,,2013-08-14 05:22:00,
2013-08-14 00:42:00,61.0,-99.9,-100.00,SSW,201,0.0,1.0,-999,0.00,,,0.00,,2013-08-14 05:42:00,
2013-08-14 00:52:00,61.0,-99.9,-100.00,SSW,201,0.0,1.0,-999,0.00,,,0.00,,2013-08-14 05:52:00,
2013-08-14 01:11:00,60.0,-99.9,-100.00,SE,138,0.0,0.0,-999,0.00,,,0.00,,2013-08-14 06:11:00,
2013-08-14 01:22:00,60.0,-99.9,-100.00,SE,138,0.0,0.0,-999,0.00,,,0.00,,2013-08-14 06:22:00,
2013-08-14 01:42:00,59.0,-99.9,-100.00,SE,130,0.0,1.0,-999,0.00,,,0.00,,2013-08-14 06:42:00,
2013-08-14 01:52:00,59.0,-99.9,-100.00,SE,130,0.0,1.0,-999,0.00,,,0.00,,2013-08-14 06:52:00,
2013-08-14 02:11:00,59.0,-99.9,-100.00,ESE,112,1.0,2.0,-999,0.00,,,0.00,,2013-08-14 07:11:00,
2013-08-14 02:21:00,59.0,-99.9,-100.00,ESE,112,1.0,2.0,-999,0.00,,,0.00,,2013-08-14 07:21:00,
2013-08-14 02:42:00,58.0,-99.9,-100.00,SSE,166,0.0,0.0,-999,0.00,,,0.00,,2013-08-14 07:42:00,
2013-08-14 02:52:00,58.0,-99.9,-100.00,SSE,166,0.0,0.0,-999,0.00,,,0.00,,2013-08-14 07:52:00,
2013-08-14 03:11:00,58.0,-99.9,-100.00,South,172,0.0,1.0,-999,0.00,,,0.00,,2013-08-14 08:11:00,
2013-08-14 03:21:00,58.0,-99.9,-100.00,South,172,0.0,1.0,-999,0.00,,,0.00,,2013-08-14 08:21:00,
2013-08-14 03:42:00,57.0,-99.9,-100.00,SSE,157,0.0,0.0,-999,0.00,,,0.00,,2013-08-14 08:42:00,
2013-08-14 03:52:00,57.0,-99.9,-100.00,SSE,157,0.0,0.0,-999,0.00,,,0.00,,2013-08-14 08:52:00,
2013-08-14 04:11:00,57.0,-99.9,-100.00,South,170,0.0,1.0,-999,0.00,,,0.00,,2013-08-14 09:11:00,
2013-08-14 04:22:00,57.0,-99.9,-100.00,South,170,0.0,1.0,-999,0.00,,,0.00,,2013-08-14 09:22:00,
2013-08-14 04:43:00,57.0,-99.9,-100.00,WSW,256,0.0,2.0,-999,0.00,,,0.00,,2013-08-14 09:43:00,
2013-08-14 04:53:00,57.0,-99.9,-100.00,WSW,256,0.0,2.0,-999,0.00,,,0.00,,2013-08-14 09:53:00,
2013-08-14 05:12:00,58.0,-99.9,-100.00,NW,307,1.0,4.0,-999,0.00,,,0.00,,2013-08-14 10:12:00,
2013-08-14 05:23:00,58.0,-99.9,-100.00,NW,307,1.0,4.0,-999,0.00,,,0.00,,2013-08-14 10:23:00,
2013-08-14 05:43:00,57.0,-99.9,-100.00,SSE,160,0.0,0.0,-999,0.00,,,0.00,,2013-08-14 10:43:00,
2013-08-14 05:53:00,57.0,-99.9,-100.00,SSE,160,0.0,0.0,-999,0.00,,,0.00,,2013-08-14 10:53:00,
2013-08-14 06:11:00,56.0,-99.9,-100.00,NNW,334,1.0,3.0,-999,0.00,,,0.00,,2013-08-14 11:11:00,
2013-08-14 06:21:00,56.0,-99.9,-100.00,NNW,334,1.0,3.0,-999,0.00,,,0.00,,2013-08-14 11:21:00,
2013-08-14 06:42:00,57.0,-99.9,-100.00,NW,317,1.0,3.0,-999,0.00,,,0.00,,2013-08-14 11:42:00,
2013-08-14 06:52:00,57.0,-99.9,-100.00,NW,317,1.0,3.0,-999,0.00,,,0.00,,2013-08-14 11:52:00,
2013-08-14 07:11:00,56.0,-99.9,-100.00,NNW,336,1.0,3.0,-999,0.00,,,0.00,,2013-08-14 12:11:00,
2013-08-14 07:21:00,56.0,-99.9,-100.00,NNW,336,1.0,3.0,-999,0.00,,,0.00,,2013-08-14 12:21:00,
2013-08-14 07:42:00,57.0,-99.9,-100.00,North,7,3.0,4.0,-999,0.00,,,0.00,,2013-08-14 12:42:00,
2013-08-14 07:52:00,57.0,-99.9,-100.00,North,7,3.0,4.0,-999,0.00,,,0.00,,2013-08-14 12:52:00,
2013-08-14 08:11:00,59.0,-99.9,-100.00,NNE,24,2.0,3.0,-999,0.00,,,0.00,,2013-08-14 13:11:00,
2013-08-14 08:22:00,59.0,-99.9,-100.00,NNE,24,2.0,3.0,-999,0.00,,,0.00,,2013-08-14 13:22:00,
2013-08-14 08:42:00,63.0,-99.9,-100.00,East,90,3.0,5.0,-999,0.00,,,0.00,,2013-08-14 13:42:00,
2013-08-14 08:52:00,63.0,-99.9,-100.00,East,90,3.0,5.0,-999,0.00,,,0.00,,2013-08-14 13:52:00,
2013-08-14 09:11:00,64.0,-99.9,-100.00,East,85,3.0,5.0,-999,0.00,,,0.00,,2013-08-14 14:11:00,
2013-08-14 09:22:00,64.0,-99.9,-100.00,East,85,3.0,5.0,-999,0.00,,,0.00,,2013-08-14 14:22:00,
2013-08-14 09:42:00,67.0,-99.9,-100.00,East,79,2.0,3.0,-999,0.00,,,0.00,,2013-08-14 14:42:00,
2013-08-14 09:52:00,67.0,-99.9,-100.00,East,79,2.0,3.0,-999,0.00,,,0.00,,2013-08-14 14:52:00,
2013-08-14 10:23:00,71.0,-99.9,-100.00,East,98,2.0,2.0,-999,0.00,,,0.00,,2013-08-14 15:23:00,
2013-08-14 10:44:00,71.0,-99.9,-100.00,NE,34,3.0,5.0,-999,0.00,,,0.00,,2013-08-14 15:44:00,
2013-08-14 10:57:00,71.0,-99.9,-100.00,NE,34,3.0,5.0,-999,0.00,,,0.00,,2013-08-14 15:57:00,
2013-08-14 11:00:00,73.0,-99.9,-100.00,NE,56,1.0,4.0,-999,0.00,,,0.00,,2013-08-14 16:00:00,
2013-08-14 11:13:00,74.0,-99.9,-100.00,North,349,0.0,1.0,-999,0.00,,,0.00,,2013-08-14 16:13:00,
2013-08-14 11:28:00,74.0,-99.9,-100.00,North,349,0.0,1.0,-999,0.00,,,0.00,,2013-08-14 16:28:00,
2013-08-14 11:43:00,73.0,-99.9,-100.00,NE,56,1.0,4.0,-999,0.00,,,0.00,,2013-08-14 16:43:00,
2013-08-14 12:20:00,73.0,-99.9,-100.00,NNE,19,2.0,7.0,-999,0.00,,,0.00,,2013-08-14 17:20:00,
2013-08-14 12:30:00,-999.0,-99.9,-100.00,NE,48,6.0,11.0,-999,0.00,,,0.00,,2013-08-14 17:30:00,
2013-08-14 12:44:00,74.0,-99.9,-100.00,NE,51,5.0,9.0,-999,0.00,,,0.00,,2013-08-14 17:44:00,
2013-08-14 12:55:00,74.0,-99.9,-100.00,NE,51,5.0,9.0,-999,0.00,,,0.00,,2013-08-14 17:55:00,
2013-08-14 13:00:00,71.0,-99.9,-100.00,NW,325,3.0,6.0,-999,0.00,,,0.00,,2013-08-14 18:00:00,
2013-08-14 13:30:00,74.0,-99.9,-100.00,East,80,5.0,8.0,-999,0.00,,,0.00,,2013-08-14 18:30:00,
2013-08-14 14:16:00,74.0,-99.9,-100.00,East,80,5.0,8.0,-999,0.00,,,0.00,,2013-08-14 19:16:00,
2013-08-14 14:42:00,76.0,-99.9,-100.00,ENE,69,2.0,6.0,-999,0.00,,,0.00,,2013-08-14 19:42:00,
2013-08-14 14:59:00,76.0,-99.9,-100.00,ENE,69,2.0,6.0,-999,0.00,,,0.00,,2013-08-14 19:59:00,
2013-08-14 15:12:00,74.0,-99.9,-100.00,East,86,1.0,4.0,-999,0.00,,,0.00,,2013-08-14 20:12:00,
2013-08-14 15:49:00,78.0,-99.9,-100.00,WNW,285,1.0,3.0,-999,0.00,,,0.00,,2013-08-14 20:49:00,
2013-08-14 16:13:00,74.0,-99.9,-100.00,North,11,2.0,6.0,-999,0.00,,,0.00,,2013-08-14 21:13:00,
2013-08-14 16:24:00,74.0,-99.9,-100.00,North,11,2.0,6.0,-999,0.00,,,0.00,,2013-08-14 21:24:00,
2013-08-14 16:45:00,74.0,-99.9,-100.00,ENE,65,1.0,3.0,-999,0.00,,,0.00,,2013-08-14 21:45:00,
2013-08-14 16:55:00,74.0,-99.9,-100.00,ENE,65,1.0,3.0,-999,0.00,,,0.00,,2013-08-14 21:55:00,
2013-08-14 17:13:00,73.0,-99.9,-100.00,ENE,77,2.0,4.0,-999,0.00,,,0.00,,2013-08-14 22:13:00,
2013-08-14 17:23:00,73.0,-99.9,-100.00,ENE,77,2.0,4.0,-999,0.00,,,0.00,,2013-08-14 22:23:00,
2013-08-14 17:44:00,73.0,-99.9,-100.00,NE,37,5.0,7.0,-999,0.00,,,0.00,,2013-08-14 22:44:00,
2013-08-14 17:55:00,73.0,-99.9,-100.00,NE,37,5.0,7.0,-999,0.00,,,0.00,,2013-08-14 22:55:00,
2013-08-14 18:13:00,72.0,-99.9,-100.00,East,80,6.0,7.0,-999,0.00,,,0.00,,2013-08-14 23:13:00,
2013-08-14 18:25:00,72.0,-99.9,-100.00,East,80,6.0,7.0,-999,0.00,,,0.00,,2013-08-14 23:25:00,
2013-08-14 18:46:00,72.0,-99.9,-100.00,East,96,4.0,6.0,-999,0.00,,,0.00,,2013-08-14 23:46:00,
2013-08-14 18:56:00,72.0,-99.9,-100.00,East,96,4.0,6.0,-999,0.00,,,0.00,,2013-08-14 23:56:00,
2013-08-14 19:12:00,71.0,-99.9,-100.00,SE,129,1.0,3.0,-999,0.00,,,0.00,,2013-08-15 00:12:00,
2013-08-14 19:23:00,71.0,-99.9,-100.00,SE,129,1.0,3.0,-999,0.00,,,0.00,,2013-08-15 00:23:00,
2013-08-14 19:43:00,71.0,-99.9,-100.00,ESE,123,1.0,4.0,-999,0.00,,,0.00,,2013-08-15 00:43:00,
2013-08-14 19:52:00,71.0,-99.9,-100.00,ESE,123,1.0,4.0,-999,0.00,,,0.00,,2013-08-15 00:52:00,
2013-08-14 20:16:00,70.0,-99.9,-100.00,SSE,148,0.0,1.0,-999,0.00,,,0.00,,2013-08-15 01:16:00,
2013-08-14 20:22:00,70.0,-99.9,-100.00,SSE,148,0.0,1.0,-999,0.00,,,0.00,,2013-08-15 01:22:00,
2013-08-14 20:42:00,69.0,-99.9,-100.00,ESE,119,2.0,2.0,-999,0.00,,,0.00,,2013-08-15 01:42:00,
2013-08-14 20:52:00,69.0,-99.9,-100.00,ESE,119,2.0,2.0,-999,0.00,,,0.00,,2013-08-15 01:52:00,
2013-08-14 21:11:00,67.0,-99.9,-100.00,South,181,0.0,0.0,-999,0.00,,,0.00,,2013-08-15 02:11:00,
2013-08-14 21:21:00,67.0,-99.9,-100.00,South,181,0.0,0.0,-999,0.00,,,0.00,,2013-08-15 02:21:00,
2013-08-14 21:52:00,66.0,-99.9,-100.00,South,189,1.0,1.0,-999,0.00,,,0.00,,2013-08-15 02:52:00,
2013-08-14 22:11:00,66.0,-99.9,-100.00,SE,132,0.0,1.0,-999,0.00,,,0.00,,2013-08-15 03:11:00,
2013-08-14 22:22:00,66.0,-99.9,-100.00,SE,132,0.0,1.0,-999,0.00,,,0.00,,2013-08-15 03:22:00,
2013-08-14 22:44:00,65.0,-99.9,-100.00,South,183,0.0,1.0,-999,0.00,,,0.00,,2013-08-15 03:44:00,
2013-08-14 22:53:00,65.0,-99.9,-100.00,South,183,0.0,1.0,-999,0.00,,,0.00,,2013-08-15 03:53:00,
2013-08-14 23:13:00,65.0,-99.9,-100.00,SSW,208,2.0,3.0,-999,0.00,,,0.00,,2013-08-15 04:13:00,
2013-08-14 23:23:00,65.0,-99.9,-100.00,SSW,208,2.0,3.0,-999,0.00,,,0.00,,2013-08-15 04:23:00,
2013-08-14 23:43:00,64.0,-99.9,-100.00,South,190,1.0,2.0,-999,0.00,,,0.00,,2013-08-15 04:43:00,
2013-08-14 23:52:00,64.0,-99.9,-100.00,South,190,1.0,2.0,-999,0.00,,,0.00,,2013-08-15 04:52:00,